EW1881 Weather Reports


Display with metric or nautical units.
time (UTC)temp
F
wind
direction
speed
MPH
gust
MPH
rain 1hr
in
rain 24hr
in
rain mn
in
humidity
%
barometer
mb
20260507144613 52 0 0.0 1.0 0.00 0.00 0.00 77 1016.3
20260507143054 49 0 0.0 1.0 0.00 0.00 0.00 80 1016.1
20260507141610 47 0 0.0 2.0 0.00 0.00 0.00 81 1016.2
20260507140053 46 0 0.0 2.0 0.00 0.00 0.00 82 1016.0
20260507134554 45 0 0.0 2.0 0.00 0.00 0.00 80 1016.0
20260507133055 46 0 0.0 0.0 0.00 0.00 0.00 80 1015.6
20260507131555 46 0 0.0 0.0 0.00 0.00 0.00 80 1015.5
20260507130103 46 0 0.0 0.0 0.00 0.00 0.00 80 1015.4
20260507124553 46 0 1.0 4.0 0.00 0.00 0.00 78 1015.4
20260507123056 46 0 0.0 1.0 0.00 0.00 0.00 77 1015.4
20260507121557 47 0 0.0 2.0 0.00 0.00 0.00 75 1015.3
20260507120055 49 239 0.0 2.0 0.00 0.00 0.00 75 1015.2
20260507114557 48 65 0.0 1.0 0.00 0.00 0.00 75 1015.2
20260507113048 49 84 0.0 3.0 0.00 0.00 0.00 73 1015.2
20260507111551 49 0 0.0 1.0 0.00 0.00 0.00 73 1015.2
20260507110053 49 63 0.0 2.0 0.00 0.00 0.00 72 1015.1
20260507104553 49 64 0.0 3.0 0.00 0.00 0.00 70 1015.0
20260507103052 49 0 0.0 0.0 0.00 0.00 0.00 69 1015.1
20260507101551 50 0 0.0 1.0 0.00 0.00 0.00 68 1015.2
20260507100050 50 0 0.0 2.0 0.00 0.00 0.00 66 1015.1
20260507094548 52 0 0.0 1.0 0.00 0.00 0.00 64 1015.1
20260507093055 52 0 0.0 1.0 0.00 0.00 0.00 63 1015.2
20260507091557 53 85 0.0 1.0 0.00 0.00 0.00 60 1015.0
20260507090056 54 0 1.0 4.0 0.00 0.00 0.00 59 1015.1
20260507084553 56 0 0.0 1.0 0.00 0.00 0.00 56 1015.1
20260507083049 57 0 0.0 3.0 0.00 0.00 0.00 54 1014.9
20260507081550 57 0 1.0 4.0 0.00 0.00 0.00 54 1014.9
20260507080056 57 84 0.0 1.0 0.00 0.00 0.00 54 1014.7
20260507074552 58 0 0.0 3.0 0.00 0.00 0.00 52 1014.6
20260507073102 58 245 0.0 3.0 0.00 0.00 0.00 52 1014.7
20260507071557 60 0 0.0 4.0 0.00 0.00 0.00 49 1014.4
20260507070100 62 0 0.0 2.0 0.00 0.00 0.00 47 1014.4
20260507064551 62 0 1.0 3.0 0.00 0.00 0.00 46 1014.5
20260507063054 63 0 0.0 3.0 0.00 0.00 0.00 44 1014.4
20260507061554 64 284 3.0 7.0 0.00 0.00 0.00 44 1014.3
20260507054557 64 0 0.0 4.0 0.00 0.00 0.00 43 1014.3
20260507053056 63 162 0.0 1.0 0.00 0.00 0.00 45 1014.2
20260507051554 63 0 0.0 2.0 0.00 0.00 0.00 45 1014.2
20260507050051 64 0 0.0 2.0 0.00 0.00 0.00 44 1014.2
20260507044600 65 0 0.0 2.0 0.00 0.00 0.00 41 1014.1
20260507043057 67 109 0.0 3.0 0.00 0.00 0.00 39 1014.1
20260507041559 68 271 4.0 9.0 0.00 0.00 0.00 38 1013.8
20260507040051 68 229 4.0 10.0 0.00 0.00 0.00 38 1013.4
20260507034603 69 240 4.0 11.0 0.00 0.00 0.00 38 1013.4
20260507033056 70 186 4.0 15.0 0.00 0.00 0.00 37 1013.2
20260507031558 70 207 8.0 19.0 0.00 0.00 0.00 36 1012.9
20260507030104 71 248 9.0 18.0 0.00 0.00 0.00 36 1012.8
20260507024559 72 211 8.0 17.0 0.00 0.00 0.00 35 1012.7
20260507023053 72 242 9.0 18.0 0.00 0.00 0.00 34 1012.6
20260507021551 73 240 8.0 16.0 0.00 0.00 0.00 34 1012.5
20260507020053 73 276 7.0 18.0 0.00 0.00 0.00 33 1012.2
20260507014555 74 270 8.0 18.0 0.00 0.00 0.00 32 1012.0
20260507013100 75 162 6.0 16.0 0.00 0.00 0.00 32 1012.0
20260507011556 76 243 7.0 15.0 0.00 0.00 0.00 31 1012.1
20260507010055 77 238 5.0 13.0 0.00 0.00 0.00 32 1012.1
20260507004550 78 284 4.0 15.0 0.00 0.00 0.00 31 1012.1
20260507003053 79 233 8.0 16.0 0.00 0.00 0.00 28 1012.1
20260507001549 80 232 7.0 21.0 0.00 0.00 0.00 29 1011.9
20260507000054 80 243 9.0 17.0 0.00 0.00 0.00 26 1011.8
20260506234555 80 229 10.0 18.0 0.00 0.00 0.00 29 1011.8
20260506233048 81 246 5.0 14.0 0.00 0.00 0.00 29 1011.7
20260506231550 80 249 6.0 13.0 0.00 0.00 0.00 27 1011.8
20260506230056 81 256 6.0 16.0 0.00 0.00 0.00 28 1011.8
20260506224600 82 187 7.0 20.0 0.00 0.00 0.00 27 1012.0
20260506223054 81 263 9.0 20.0 0.00 0.00 0.00 26 1012.1
20260506221555 82 276 4.0 16.0 0.00 0.00 0.00 29 1012.1
20260506220049 83 236 6.0 16.0 0.00 0.00 0.00 31 1012.3
20260506214607 82 225 7.0 20.0 0.00 0.00 0.00 33 1012.4
20260506213049 82 285 4.0 16.0 0.00 0.00 0.00 35 1012.5
20260506211550 83 288 8.0 18.0 0.00 0.00 0.00 34 1012.5
20260506210052 83 105 5.0 16.0 0.00 0.00 0.00 28 1012.3
20260506204608 83 328 6.0 15.0 0.00 0.00 0.00 28 1012.4
20260506203051 83 233 6.0 14.0 0.00 0.00 0.00 27 1012.3
20260506201550 81 294 7.0 15.0 0.00 0.00 0.00 29 1012.4
20260506200050 81 184 7.0 13.0 0.00 0.00 0.00 31 1012.6
20260506194604 81 255 6.0 12.0 0.00 0.00 0.00 30 1012.7
20260506193058 80 225 6.0 11.0 0.00 0.00 0.00 33 1013.0
20260506191554 79 204 4.0 12.0 0.00 0.00 0.00 35 1013.3
20260506190053 78 232 7.0 14.0 0.00 0.00 0.00 37 1013.4
20260506184547 77 291 5.0 15.0 0.00 0.00 0.00 39 1013.5
20260506183056 77 255 5.0 18.0 0.00 0.00 0.00 39 1013.8
20260506181559 76 257 2.0 9.0 0.00 0.00 0.00 40 1014.1
20260506180052 75 231 3.0 10.0 0.00 0.00 0.00 41 1014.2
20260506174553 74 248 2.0 5.0 0.00 0.00 0.00 44 1014.4
20260506173055 73 228 0.0 3.0 0.00 0.00 0.00 45 1014.4
20260506171559 72 305 1.0 4.0 0.00 0.00 0.00 47 1014.4
20260506170056 71 0 0.0 3.0 0.00 0.00 0.00 49 1014.5
20260506164600 70 0 0.0 2.0 0.00 0.00 0.00 51 1014.4
20260506163100 68 0 0.0 3.0 0.00 0.00 0.00 53 1014.5
20260506161603 68 294 2.0 4.0 0.00 0.00 0.00 52 1014.6
20260506160049 68 0 0.0 1.0 0.00 0.00 0.00 55 1014.5
20260506154609 68 0 0.0 3.0 0.00 0.00 0.00 55 1014.7
20260506153051 67 0 0.0 0.0 0.00 0.00 0.00 57 1014.7
20260506151555 64 0 0.0 1.0 0.00 0.00 0.00 65 1015.0
20260506150053 61 0 0.0 1.0 0.00 0.00 0.00 72 1014.8